{"data":{"norad_id":47833,"epoch":"2026-09-20T01:50:19.364928Z","epoch_age_seconds":65718,"freshness":"FRESH","line1":"1 47833U 21018AY  26263.07661302  .00002017  00000+0  76738-4 0  9995","line2":"2 47833  53.1594  71.6710 0001260  80.3552 279.7592 15.31698120306363","mean_motion":15.3169812,"eccentricity":0.000126,"inclination_deg":53.1594,"raan_deg":71.671,"arg_perigee_deg":80.3552,"mean_anomaly_deg":279.7592,"bstar":7.6738e-5,"rev_number":30636,"period_min":94.013303352491,"perigee_km":469.88264020603,"apogee_km":471.60855862108,"semimajor_km":6848.8825994136,"source":"CELESTRAK","updated_at":"2026-09-20T09:00:38.752086Z"}}